Powrót do katalogu

STARLINK-34922

AktywnyŁącznośćSSO
NORAD 65273·PAYLOAD·🇺🇸 United States

Wystrzelony Aug 22, 2025 z Vandenberg Space Force Base

Loading…

Następne Przeloty (najbliższe 24 godziny)

TLE

ŚwieżeSource: CelesTrak SupGP

Epoka: Sep 15, 2026, 03:33 UTC

1 65273C 25184A   26258.14840278  .00012594  00000+0  39104-3 0  2588
2 65273  97.2838 306.2096 0001181  96.0023 327.1580 15.33424690    13

Śledź STARLINK-34922 w czasie rzeczywistym z AllMySat

Download on the App Store